Temp
4 4 5 5 5 5 6 6 6 6 6 6 6 6 7 7 7 8 8 8 8 8 9 9 9 9 9 9 9 9 9 9 10 10 9 9 9 9 9 9 9 9 9 9 9
5 4 4 4 5 5 5 5 5 6 6 6 6 6 7 7 8 8 8 8 8 8 9 9 9 9 9 9 10 9 9 10 10 9 9 9 9 8 8 8 9 9 9 8 8
4 4 4 4 4 4 5 5 5 5 6 6 6 6 7 7 8 8 8 8 8 9 9 9 9 9 9 9 10 10 10 10 10 9 9 9 8 8 8 8 9 8 8 8 8
3 4 4 4 4 4 4 5 5 5 6 6 6 7 7 7 7 8 8 8 8 8 9 9 9 9 9 9 9 9 10 10 9 9 9 9 8 8 8 8 8 8 8 8 8
3 3 3 4 4 4 4 4 5 5 5 6 6 6 7 7 7 7 8 8 8 8 8 8 9 9 9 9 9 9 9 9 9 9 9 9 8 8 9 8 8 8 8 8 8
3 3 3 3 3 4 4 4 4 5 5 5 6 6 6 7 7 7 7 7 8 8 8 8 8 8 9 9 9 9 9 9 9 9 8 8 8 8 10 9 8 8 8 8 8
3 3 3 3 4 4 4 4 4 4 5 5 5 6 6 6 7 7 7 7 7 8 8 8 8 8 8 8 8 8 8 9 9 9 8 8 8 10 8 8 8 9 9 9 9
2 2 3 3 3 4 4 4 4 4 4 5 5 5 6 6 6 7 7 7 7 7 7 7 7 7 8 8 8 8 8 9 9 9 8 8 10 9 9 9 9 8 8 8 8
1 2 2 3 3 3 3 4 4 4 5 5 5 5 6 6 6 6 7 7 7 7 7 7 7 7 7 7 7 7 8 9 8 8 8 8 9 9 9 8 8 8 8 8 8
0 1 1 1 2 3 3 3 4 4 4 5 5 5 5 6 6 6 6 6 6 6 7 7 7 7 7 7 7 8 8 8 8 8 7 7 9 8 8 8 8 8 8 9 9
-0 -0 0 1 1 1 2 3 3 3 4 4 4 5 5 6 6 6 6 6 6 6 6 6 6 7 9 8 7 6 6 6 7 7 6 7 8 9 7 8 9 9 8 9 9
-0 -1 -1 -0 0 1 1 1 2 2 3 4 4 4 5 5 5 6 6 6 6 6 6 6 6 7 7 7 6 6 6 7 7 7 5 6 7 8 8 9 9 9 9 9 9
-0 -1 -1 -1 -1 -0 0 0 1 1 2 4 4 4 4 5 5 5 5 5 5 5 6 6 6 7 7 7 7 6 6 7 6 6 6 6 7 9 10 10 10 10 10 10 10
-2 -1 -1 -0 -1 -0 0 -1 -0 -0 0 2 4 4 4 4 5 5 5 5 5 5 5 5 5 6 6 6 6 6 7 6 6 5 5 4 3 8 10 11 11 11 11 11 10
-2 -2 -1 -2 -1 -1 -1 -1 -1 -1 -0 2 3 4 4 4 5 6 5 5 5 5 5 6 6 6 6 7 7 6 6 5 5 5 4 3 3 7 8 10 11 11 11 11 10
-2 -2 -2 -2 -2 -1 -1 -2 -1 -2 -2 1 1 2 3 3 4 4 5 5 5 4 4 5 5 5 5 6 5 5 4 4 4 3 1 4 4 8 9 10 10 11 10 9 9
-3 -2 -2 -2 -2 -2 -1 -1 -2 -2 0 1 1 1 2 3 3 3 3 4 4 3 3 3 4 4 4 4 4 4 3 3 0 -3 0 4 3 7 9 8 9 10 10 9 9
-3 -3 -3 -2 -3 -2 -2 -2 -2 -1 -1 -0 1 1 2 2 2 1 2 2 3 3 3 3 3 4 5 5 4 4 4 4 -2 -3 -1 2 2 7 8 8 8 9 9 9 9
-3 -3 -3 -3 -3 -3 -3 -3 -3 -1 -1 -1 -0 0 1 1 1 1 1 2 3 3 2 3 3 4 5 5 4 3 2 3 4 3 -0 4 6 6 7 9 9 10 10 10 8
-3 -3 -3 -4 -4 -4 -4 -3 -3 -2 -2 -2 -1 -1 0 1 1 1 1 2 3 3 2 2 2 3 3 3 3 2 3 2 2 -2 -5 3 3 5 7 8 8 8 9 9 8
-4 -4 -3 -4 -5 -5 -5 -4 -3 -3 -3 -3 -2 -2 -1 -0 1 1 1 2 3 3 3 1 1 2 2 3 3 2 1 2 2 3 -4 -4 6 8 7 8 8 8 8 8 8
-5 -5 -5 -5 -6 -6 -5 -3 -2 -3 -3 -3 -3 -3 -2 -1 -1 -0 0 1 2 2 2 2 0 1 1 2 2 2 4 3 2 -0 2 2 4 6 6 7 7 7 7 7 7
-6 -6 -7 -7 -7 -5 -4 -4 -3 -3 -3 -3 -3 -3 -2 -2 -2 -2 -1 0 0 1 1 1 -1 -1 0 -0 -0 1 2 2 2 2 3 -0 4 5 5 6 6 6 6 6 6
-9 -8 -8 -9 -7 -7 -6 -4 -5 -4 -4 -4 -3 -3 -3 -3 -2 -2 -1 -1 -0 0 0 -1 -2 -1 0 1 1 0 1 1 1 1 2 1 5 4 4 5 5 5 5 5 5
-10 -9 -9 -8 -8 -7 -7 -7 -6 -5 -5 -5 -4 -4 -4 -4 -3 -2 -2 -2 -1 -1 -1 -2 -2 -1 1 0 1 1 1 1 1 2 0 4 2 6 4 3 4 4 4 4 4
-10 -10 -10 -9 -9 -9 -8 -7 -7 -5 -6 -5 -5 -4 -4 -3 -3 -3 -2 -2 -1 -2 -1 -2 -2 -2 -1 0 -1 -1 -0 -1 -0 1 1 2 1 4 3 3 2 3 4 5 4
-10 -10 -10 -10 -9 -10 -9 -7 -7 -7 -6 -6 -6 -6 -5 -4 -5 -3 -2 -3 -3 -2 -2 -2 -1 -2 -2 -1 -2 -3 1 0 -1 0 0 0 4 4 3 3 4 4 4 3 3
Height
3128 3130 3131 3133 3134 3135 3137 3139 3142 3144 3146 3146 3149 3150 3150 3152 3153 3154 3157 3158 3160 3161 3163 3164 3166 3167 3168 3170 3171 3172 3173 3172 3173 3174 3175 3176 3176 3177 3178 3178 3180 3181 3182 3183 3184
3125 3128 3131 3133 3133 3134 3136 3138 3140 3142 3144 3146 3148 3149 3150 3150 3152 3153 3156 3157 3159 3161 3162 3164 3165 3166 3167 3168 3169 3170 3171 3171 3171 3173 3173 3174 3175 3175 3176 3177 3178 3179 3180 3182 3183
3123 3125 3128 3131 3132 3133 3135 3136 3138 3140 3142 3144 3147 3148 3148 3149 3152 3152 3153 3156 3157 3159 3161 3162 3164 3165 3166 3167 3167 3168 3168 3169 3169 3171 3172 3172 3173 3173 3174 3174 3176 3177 3178 3179 3180
3122 3123 3125 3128 3131 3133 3134 3135 3136 3138 3140 3143 3143 3145 3146 3148 3152 3150 3151 3153 3155 3157 3159 3160 3161 3163 3164 3164 3165 3166 3166 3167 3168 3169 3170 3170 3171 3171 3171 3173 3173 3174 3174 3176 3177
3119 3121 3123 3125 3127 3130 3133 3134 3135 3136 3138 3139 3141 3142 3144 3147 3148 3148 3149 3152 3153 3155 3156 3158 3159 3160 3161 3162 3163 3164 3164 3165 3166 3167 3167 3168 3168 3168 3167 3169 3170 3170 3171 3172 3174
3116 3119 3121 3121 3124 3127 3129 3131 3133 3134 3136 3137 3137 3140 3143 3145 3145 3147 3148 3150 3152 3153 3154 3156 3157 3158 3159 3160 3162 3162 3162 3163 3164 3164 3164 3165 3164 3164 3165 3166 3166 3166 3168 3169 3170
3113 3115 3118 3120 3121 3122 3124 3128 3130 3131 3133 3134 3136 3137 3139 3142 3142 3144 3146 3149 3150 3151 3151 3153 3154 3156 3157 3158 3159 3160 3161 3160 3161 3161 3160 3161 3159 3160 3162 3162 3162 3163 3164 3165 3166
3109 3111 3113 3116 3118 3119 3121 3123 3126 3128 3130 3131 3133 3135 3135 3137 3139 3141 3143 3146 3147 3149 3150 3151 3152 3153 3155 3156 3157 3157 3158 3158 3158 3158 3158 3159 3153 3158 3158 3158 3159 3159 3160 3161 3162
3104 3106 3109 3112 3114 3116 3117 3119 3121 3123 3126 3128 3130 3131 3133 3134 3136 3138 3141 3143 3144 3146 3147 3148 3149 3150 3152 3153 3154 3154 3154 3154 3155 3155 3155 3154 3150 3154 3154 3154 3155 3155 3155 3156 3157
3099 3101 3104 3107 3109 3111 3113 3115 3116 3118 3120 3123 3125 3129 3129 3131 3133 3134 3136 3139 3140 3142 3143 3144 3144 3145 3148 3149 3149 3150 3151 3151 3152 3153 3151 3149 3146 3149 3149 3149 3149 3149 3150 3150 3151
3091 3094 3098 3100 3103 3106 3109 3112 3115 3115 3114 3118 3119 3121 3125 3127 3128 3131 3132 3134 3136 3138 3139 3139 3139 3139 3145 3146 3146 3147 3147 3147 3148 3148 3145 3144 3140 3142 3145 3143 3143 3144 3144 3145 3145
3086 3089 3091 3095 3098 3102 3103 3105 3107 3108 3107 3109 3112 3114 3118 3121 3124 3126 3129 3130 3131 3132 3134 3135 3132 3141 3141 3141 3141 3142 3142 3143 3144 3143 3139 3137 3130 3133 3135 3135 3137 3137 3137 3137 3139
3080 3084 3086 3090 3093 3096 3099 3101 3101 3102 3101 3102 3104 3106 3112 3116 3117 3120 3123 3124 3126 3127 3130 3130 3133 3134 3135 3136 3136 3137 3137 3139 3140 3139 3133 3130 3118 3123 3127 3126 3128 3129 3130 3130 3130
3075 3078 3082 3085 3088 3092 3093 3092 3094 3097 3096 3091 3094 3098 3101 3106 3106 3111 3115 3119 3121 3123 3127 3124 3127 3129 3131 3131 3135 3132 3135 3135 3135 3135 3129 3124 3115 3112 3117 3118 3120 3123 3122 3122 3121
3069 3073 3076 3078 3079 3086 3090 3089 3091 3093 3090 3087 3084 3084 3090 3096 3096 3102 3107 3110 3111 3116 3121 3116 3119 3123 3123 3126 3131 3129 3130 3131 3131 3130 3125 3116 3123 3100 3106 3106 3113 3115 3114 3113 3113
3063 3066 3069 3073 3074 3079 3082 3084 3087 3090 3080 3075 3075 3076 3081 3084 3086 3091 3098 3101 3104 3109 3109 3109 3112 3116 3118 3121 3125 3124 3125 3126 3126 3125 3118 3106 3113 3090 3094 3096 3101 3106 3106 3106 3105
3056 3059 3063 3066 3069 3075 3076 3077 3080 3073 3074 3072 3072 3073 3075 3078 3081 3084 3088 3090 3095 3100 3098 3101 3102 3105 3110 3114 3117 3118 3121 3124 3124 3121 3105 3099 3103 3083 3086 3091 3093 3096 3099 3098 3097
3049 3052 3055 3059 3064 3068 3071 3069 3062 3062 3068 3066 3069 3070 3073 3077 3078 3079 3082 3085 3087 3090 3092 3095 3096 3095 3097 3100 3107 3111 3114 3115 3118 3115 3098 3093 3084 3074 3081 3082 3085 3088 3089 3089 3090
3041 3045 3048 3054 3056 3059 3063 3057 3054 3053 3057 3063 3065 3067 3068 3072 3075 3075 3076 3077 3079 3082 3087 3089 3088 3087 3090 3094 3100 3101 3102 3106 3109 3105 3103 3082 3072 3070 3075 3077 3077 3080 3083 3083 3083
3031 3035 3039 3046 3047 3050 3052 3044 3046 3050 3051 3053 3060 3063 3063 3066 3069 3070 3071 3069 3072 3075 3080 3084 3084 3082 3083 3086 3089 3091 3094 3100 3102 3105 3105 3070 3066 3062 3067 3069 3071 3073 3075 3078 3079
3022 3025 3030 3036 3038 3040 3037 3039 3038 3043 3046 3052 3054 3057 3057 3060 3062 3062 3065 3066 3069 3071 3073 3078 3079 3076 3077 3074 3076 3084 3084 3088 3090 3090 3087 3085 3056 3058 3061 3064 3066 3069 3073 3074 3075
3013 3016 3020 3023 3031 3028 3028 3031 3034 3033 3038 3041 3046 3048 3050 3054 3054 3056 3057 3060 3064 3065 3066 3068 3070 3066 3067 3069 3072 3072 3072 3074 3077 3079 3081 3078 3050 3053 3057 3060 3064 3066 3067 3069 3070
3002 3005 3009 3016 3019 3017 3020 3022 3026 3028 3032 3032 3036 3038 3042 3044 3049 3046 3048 3052 3057 3060 3058 3060 3061 3061 3060 3062 3061 3061 3063 3069 3071 3073 3068 3069 3041 3048 3053 3058 3060 3061 3063 3064 3064
2996 2997 2999 3004 3008 3010 3011 3011 3017 3019 3022 3028 3027 3029 3032 3032 3036 3034 3038 3041 3046 3049 3053 3051 3048 3048 3045 3048 3051 3053 3054 3058 3062 3064 3041 3053 3026 3044 3048 3052 3055 3056 3059 3060 3060
2988 2985 2989 2992 2992 3000 3004 3006 3006 3009 3013 3018 3018 3020 3023 3025 3028 3023 3027 3033 3035 3039 3041 3038 3037 3040 3038 3042 3044 3047 3048 3048 3047 3038 3052 3021 3045 3019 3041 3046 3049 3051 3051 3050 3050
2979 2978 2980 2984 2987 2993 2996 2994 2998 3001 3005 3004 3012 3013 3014 3014 3018 3019 3020 3021 3024 3029 3031 3029 3027 3031 3028 3030 3033 3035 3038 3035 3037 3039 3039 3028 3031 3023 3032 3036 3036 3039 3039 3038 3039
2967 2969 2974 2973 2978 2983 2982 2985 2988 2995 2996 2999 3002 3004 3006 3010 3012 3012 3008 3008 3011 3014 3017 3017 3017 3022 3017 3019 3024 3024 3012 3017 3023 3022 3025 3023 3003 3021 3022 3024 3027 3027 3026 3025 3026
Wind_Speed
14 14 14 14 14 14 14 14 14 13 12 11 11 11 11 11 12 12 12 11 12 12 12 13 13 14 16 17 16 16 14 13 11 9 9 7 6 6 7 9 9 8 8 6 6
17 15 15 15 14 14 14 14 14 13 13 12 12 13 13 12 13 13 13 12 12 13 13 13 13 13 13 13 14 15 15 11 12 11 12 9 8 8 9 8 9 10 10 10 9
17 17 16 15 15 15 15 15 15 14 14 13 14 14 13 12 12 13 13 13 13 13 13 14 14 13 13 12 13 14 14 12 11 10 11 12 12 12 12 14 9 8 10 12 12
16 17 18 16 16 16 16 15 15 15 15 15 14 14 13 12 9 12 13 13 14 14 14 14 13 13 12 13 13 12 12 12 11 11 11 12 13 16 16 13 13 13 14 14 14
17 17 16 17 17 15 15 15 15 15 15 15 14 14 14 13 13 7 13 13 14 14 14 13 13 12 11 11 11 11 11 11 11 13 15 15 16 18 18 16 16 16 15 14 15
21 19 19 18 17 17 17 16 15 15 15 15 15 15 15 13 13 12 9 10 12 13 14 14 14 13 11 11 11 9 12 13 12 15 16 16 18 19 13 14 14 16 15 15 15
24 24 22 21 20 20 19 18 17 17 16 15 15 16 16 15 14 15 15 13 11 11 12 14 14 12 11 10 13 13 13 14 14 15 17 17 23 19 12 16 16 16 15 16 16
27 26 26 25 24 23 22 21 20 20 18 18 17 17 17 16 16 16 15 16 15 15 14 14 14 14 13 13 12 12 13 13 13 13 16 17 26 16 16 16 16 18 18 19 20
27 27 27 27 26 25 25 24 22 21 21 21 20 20 20 19 18 17 18 17 15 16 16 16 16 16 15 14 15 14 13 14 12 14 16 18 25 17 14 14 16 18 20 21 22
31 28 28 27 26 27 28 27 25 25 24 24 24 21 22 11 18 21 20 20 20 20 20 19 20 20 18 17 16 11 13 16 16 15 17 22 27 21 20 20 21 23 23 23 23
29 31 29 26 27 26 26 28 27 27 28 27 25 26 23 20 18 17 17 22 25 24 24 24 25 25 17 17 19 20 20 22 21 21 25 26 29 26 22 26 26 26 26 25 24
26 25 32 29 27 27 27 27 28 29 31 31 31 31 29 26 22 20 21 21 20 26 29 28 30 21 21 22 23 23 23 24 22 22 24 27 35 32 31 30 28 29 30 29 29
23 22 24 32 25 26 25 31 29 28 32 36 34 35 31 31 31 29 26 23 22 23 22 24 18 14 21 22 24 24 25 22 22 24 31 34 45 38 33 32 31 30 28 30 30
29 26 25 28 30 31 33 24 24 23 20 36 37 40 38 35 39 35 33 31 30 28 23 23 26 26 26 27 20 26 23 23 23 21 24 21 14 44 40 36 32 29 27 24 22
28 28 26 27 29 23 22 25 25 20 6 13 24 35 38 40 45 40 38 36 37 35 32 36 31 30 32 32 26 30 27 24 22 22 30 31 13 36 36 44 39 34 27 22 18
29 29 29 29 31 27 26 25 25 18 8 7 14 22 30 35 44 44 36 40 41 37 39 41 39 34 29 27 22 26 20 16 18 19 13 28 21 47 47 41 29 23 26 19 18
29 30 30 30 33 28 25 24 20 11 10 10 14 17 19 29 36 40 40 41 39 33 45 44 46 44 40 35 28 24 19 4 4 2 12 6 16 44 42 30 30 23 22 23 25
31 31 31 31 29 30 32 23 14 19 26 14 9 13 19 21 29 34 37 36 41 42 28 29 27 45 48 48 34 30 33 17 8 4 7 15 15 25 30 30 34 37 28 11 16
33 34 34 30 29 29 28 33 27 28 29 35 27 14 18 24 25 26 33 39 39 43 38 14 23 26 25 22 35 32 36 30 29 27 11 20 42 42 37 24 17 9 13 17 13
36 35 36 31 32 30 32 34 42 47 24 18 24 17 25 27 27 26 23 25 39 39 37 27 22 19 22 27 26 38 22 15 17 3 5 13 18 24 21 21 12 15 9 12 13
36 38 37 34 34 33 40 41 46 44 42 32 32 25 29 28 32 33 28 32 25 24 31 40 31 19 19 30 35 32 36 21 15 18 5 3 21 27 19 15 6 10 6 9 14
34 36 35 32 34 39 45 47 46 20 27 35 40 36 40 39 33 35 39 39 19 20 29 28 21 37 40 23 26 33 41 46 22 9 16 20 40 9 11 10 14 12 13 16 16
29 36 35 23 30 42 48 50 48 52 50 20 38 42 49 39 31 33 40 41 38 37 25 29 25 17 12 21 32 36 40 39 43 31 33 15 40 9 14 22 18 18 14 15 21
26 26 35 39 40 33 40 50 49 52 51 48 53 39 30 41 44 46 43 46 41 42 42 37 31 30 26 13 10 30 43 41 43 33 52 39 71 56 25 16 13 14 17 20 27
28 36 34 23 41 47 39 30 32 46 48 40 43 45 44 42 39 47 44 39 38 37 36 39 37 37 43 42 40 34 22 22 46 60 32 68 48 69 57 53 44 46 45 43 45
40 39 41 39 34 31 49 55 44 28 34 42 46 46 40 49 49 34 41 46 48 40 35 45 39 40 50 49 45 46 44 48 41 40 51 59 59 59 54 53 50 48 44 45 44
44 43 40 36 39 37 42 47 57 52 47 32 35 37 45 54 48 42 34 32 30 36 44 47 46 39 38 46 29 27 56 55 51 53 53 54 63 54 55 55 53 54 56 54 50
Wind_Direction
220 225 219 215 217 218 220 223 224 225 226 222 220 217 215 210 204 201 202 195 193 189 187 187 189 192 200 205 208 213 223 228 234 223 217 229 241 246 240 244 253 257 255 237 218
212 221 224 224 217 218 217 216 220 223 223 222 221 220 216 209 208 205 204 202 200 198 198 197 196 197 199 202 210 216 228 241 239 229 224 243 246 257 254 254 261 263 259 251 250
211 212 219 221 221 216 216 215 217 221 223 222 224 224 220 215 214 211 209 211 210 209 211 210 212 212 212 212 216 224 231 239 238 231 222 234 239 246 255 262 280 289 259 251 250
212 208 207 216 222 223 219 219 220 222 225 225 223 226 225 221 220 221 217 217 217 216 218 217 217 219 220 224 228 231 235 238 237 238 241 240 242 252 259 272 274 267 258 250 250
211 212 214 212 215 224 232 229 226 226 226 227 228 226 227 225 224 229 217 221 221 220 222 221 221 223 222 228 231 231 233 232 239 249 250 253 256 253 265 263 263 260 258 256 251
216 220 221 216 219 225 230 234 236 234 232 230 227 230 229 230 226 226 213 210 220 221 219 216 217 218 218 225 227 233 239 246 248 255 259 259 257 258 274 267 258 256 254 251 248
224 222 225 228 227 226 230 240 240 240 240 239 235 231 231 227 228 228 227 229 222 214 210 207 209 211 217 227 240 246 251 257 258 259 263 268 261 271 278 259 254 251 250 248 247
230 232 230 231 232 231 234 236 242 250 246 244 245 243 240 232 231 229 229 231 229 225 221 221 224 231 234 238 250 253 256 259 263 264 265 262 272 278 268 263 261 257 254 252 255
232 232 234 237 237 239 238 237 240 244 253 254 250 250 250 242 237 234 234 232 228 228 229 231 234 237 238 242 252 255 261 266 273 272 269 267 277 277 272 264 257 255 256 255 250
237 235 237 240 240 241 244 243 239 243 245 251 254 256 243 241 238 239 238 238 236 236 236 235 237 239 240 241 246 265 264 273 273 278 273 274 278 278 270 264 262 257 254 254 255
251 232 237 237 243 245 250 249 248 249 244 244 251 254 255 249 240 241 239 242 242 241 240 241 240 240 258 266 266 270 272 272 276 282 279 279 280 277 267 265 265 264 264 262 259
248 252 233 242 246 248 249 252 251 252 250 245 243 245 249 248 247 246 247 246 246 243 243 243 249 258 256 254 258 262 265 271 285 286 283 288 280 280 274 272 271 270 268 268 266
237 242 257 234 243 253 259 251 249 252 258 247 245 243 244 248 250 248 249 250 249 250 250 250 250 250 250 250 252 259 265 278 286 289 286 288 285 285 283 278 276 275 280 277 276
243 247 240 245 244 244 247 238 230 243 261 259 253 249 242 241 245 242 242 244 248 252 252 259 250 251 254 254 257 264 270 278 282 286 283 281 289 286 288 285 278 282 288 289 281
243 240 237 237 247 244 239 253 262 227 247 252 235 237 240 235 245 243 240 241 244 247 246 251 258 257 256 260 260 267 272 276 276 276 282 272 256 282 284 284 290 295 291 287 270
243 242 239 238 240 242 237 240 253 254 261 224 217 227 226 226 233 236 236 236 239 239 244 247 251 253 257 256 249 255 261 265 273 272 271 264 239 279 279 290 291 296 295 284 272
240 242 242 239 237 235 242 230 227 206 232 247 233 230 224 224 227 229 232 231 225 223 237 243 245 247 248 248 245 240 240 254 279 189 244 244 227 263 280 281 290 298 291 280 278
236 238 241 241 238 239 235 240 221 228 224 234 220 227 230 233 234 232 228 231 232 230 238 236 249 247 246 245 240 240 237 222 210 208 271 288 240 269 284 286 288 294 293 266 257
243 238 236 239 237 234 236 234 233 234 239 234 236 233 225 231 230 233 234 234 237 233 227 232 244 248 246 246 241 229 224 250 247 268 291 267 271 276 280 293 293 291 269 278 251
245 243 241 235 236 228 222 232 235 240 234 234 241 232 233 230 226 230 232 244 239 240 238 239 252 255 241 232 227 222 238 206 198 201 256 266 273 264 286 295 276 259 223 247 247
248 245 243 237 235 227 227 235 247 242 246 238 240 240 241 227 232 232 241 245 250 252 249 241 236 249 237 227 228 215 225 217 222 224 189 296 271 281 287 292 232 170 189 226 272
247 246 248 241 232 231 231 234 236 242 242 249 243 240 244 246 236 241 246 247 247 251 241 244 237 242 243 243 236 233 241 228 211 209 226 247 267 262 248 239 224 211 268 268 245
246 246 237 223 233 232 237 241 242 244 244 243 236 239 242 247 247 247 246 250 251 246 230 227 218 241 247 244 236 232 233 237 230 238 240 208 257 265 248 240 243 239 249 246 240
245 248 246 233 227 232 243 242 244 246 248 246 252 250 244 241 241 246 249 251 248 246 236 243 225 222 230 230 235 230 235 232 233 226 241 239 254 256 267 245 232 236 239 267 270
235 247 246 240 241 231 230 240 253 249 247 248 250 253 254 257 253 231 243 237 251 246 239 233 231 238 247 247 252 251 251 246 232 239 230 253 252 266 262 258 252 263 273 275 278
228 235 252 248 246 239 233 236 237 237 250 252 245 248 252 241 244 254 255 244 240 248 236 233 236 247 249 256 251 246 246 249 243 251 247 259 261 265 269 270 269 272 278 283 286
223 231 246 257 249 242 241 241 242 247 243 248 240 244 249 254 260 251 231 248 233 229 234 229 232 232 250 257 257 244 249 246 246 248 246 251 265 279 273 274 277 280 282 285 285